Location: *
(34.0486°S, 61.7880°E)
Time: 16:44:44
(UTC+00:00)

Cosmos 2278 Rocket - Pass Details

Date: 01 April 2020
Orbit: 839 x 847 km, 71.0° (Epoch: 27 May)

Event Time Altitude Azimuth Distance (km) Brightness Sun altitude
Rises 15:35:13 0° 356° (N) 3,395 5.3 -23.1°
Reaches altitude 10° 15:37:43 10° 2° (N) 2,467 4.5 -23.6°
Enters shadow 15:39:31 20° 10° (N) 1,849 3.8 -24.0°
